Time,TemperatureF,DewpointF,PressureIn,WindDirection,WindDirectionDegrees,WindSpeedMPH,WindSpeedGustMPH,Humidity,HourlyPrecipIn,Conditions,Clouds,dailyrainin,SoftwareType,DateUTC
2013-04-05 00:02:00,56.0,25.0,29.97,West,266,0.0,0.0,30,0.00,,,0.00,,2013-04-05 06:02:00,
2013-04-05 00:12:00,56.0,25.0,29.97,West,266,0.0,0.0,30,0.00,,,0.00,,2013-04-05 06:12:00,
2013-04-05 00:22:00,55.0,24.0,29.97,West,267,0.0,0.0,30,0.00,,,0.00,,2013-04-05 06:22:00,
2013-04-05 00:32:00,55.0,25.0,29.96,West,267,0.0,0.0,31,0.00,,,0.00,,2013-04-05 06:32:00,
2013-04-05 00:42:00,55.0,25.0,29.96,West,267,0.0,0.0,31,0.00,,,0.00,,2013-04-05 06:42:00,
2013-04-05 00:52:00,54.0,24.0,29.96,West,267,0.0,0.0,31,0.00,,,0.00,,2013-04-05 06:52:00,
2013-04-05 01:02:00,54.0,26.0,29.96,WSW,251,0.0,0.0,33,0.00,,,0.00,,2013-04-05 07:02:00,
2013-04-05 01:12:00,54.0,26.0,29.96,WSW,251,0.0,0.0,33,0.00,,,0.00,,2013-04-05 07:12:00,
2013-04-05 01:22:00,53.0,25.0,29.96,WSW,250,0.0,0.0,34,0.00,,,0.00,,2013-04-05 07:22:00,
2013-04-05 01:32:00,53.0,25.0,29.96,WSW,250,0.0,0.0,33,0.00,,,0.00,,2013-04-05 07:32:00,
2013-04-05 01:42:00,53.0,25.0,29.96,WSW,250,0.0,0.0,33,0.00,,,0.00,,2013-04-05 07:42:00,
2013-04-05 01:52:00,53.0,29.0,29.96,WSW,250,0.0,0.0,39,0.00,,,0.00,,2013-04-05 07:52:00,
2013-04-05 02:02:00,53.0,32.0,29.96,NNW,333,0.0,0.0,44,0.00,,,0.00,,2013-04-05 08:02:00,
2013-04-05 02:13:00,53.0,32.0,29.96,NNW,333,0.0,0.0,44,0.00,,,0.00,,2013-04-05 08:13:00,
2013-04-05 02:22:00,53.0,27.0,29.96,NNW,333,0.0,0.0,37,0.00,,,0.00,,2013-04-05 08:22:00,
2013-04-05 02:32:00,52.0,28.0,29.96,NNW,333,0.0,0.0,40,0.00,,,0.00,,2013-04-05 08:32:00,
2013-04-05 02:43:00,52.0,28.0,29.96,NNW,333,0.0,0.0,40,0.00,,,0.00,,2013-04-05 08:43:00,
2013-04-05 02:52:00,52.0,27.0,29.95,NNW,333,0.0,0.0,38,0.00,,,0.00,,2013-04-05 08:52:00,
2013-04-05 03:02:00,52.0,26.0,29.95,NNW,331,0.0,0.0,36,0.00,,,0.00,,2013-04-05 09:02:00,
2013-04-05 03:12:00,52.0,26.0,29.95,NNW,331,0.0,0.0,36,0.00,,,0.00,,2013-04-05 09:12:00,
2013-04-05 03:22:00,51.0,24.0,29.95,NNW,333,0.0,0.0,34,0.00,,,0.00,,2013-04-05 09:22:00,
2013-04-05 03:33:00,51.0,25.0,29.94,NNW,331,0.0,0.0,36,0.00,,,0.00,,2013-04-05 09:33:00,
2013-04-05 03:42:00,51.0,25.0,29.94,NNW,331,0.0,0.0,36,0.00,,,0.00,,2013-04-05 09:42:00,
2013-04-05 03:52:00,51.0,25.0,29.93,NNW,331,0.0,0.0,36,0.00,,,0.00,,2013-04-05 09:52:00,
2013-04-05 04:03:00,51.0,25.0,29.94,NNW,333,0.0,0.0,36,0.00,,,0.00,,2013-04-05 10:03:00,
2013-04-05 04:13:00,51.0,25.0,29.94,NNW,333,0.0,0.0,36,0.00,,,0.00,,2013-04-05 10:13:00,
2013-04-05 04:23:00,50.0,25.0,29.93,NNW,333,0.0,0.0,38,0.00,,,0.00,,2013-04-05 10:23:00,
2013-04-05 04:33:00,50.0,25.0,29.93,NNW,333,0.0,0.0,38,0.00,,,0.00,,2013-04-05 10:33:00,
2013-04-05 04:42:00,50.0,25.0,29.93,NNW,333,0.0,0.0,38,0.00,,,0.00,,2013-04-05 10:42:00,
2013-04-05 04:52:00,50.0,26.0,29.93,NNW,333,0.0,0.0,39,0.00,,,0.00,,2013-04-05 10:52:00,
2013-04-05 05:02:00,49.0,25.0,29.93,NNW,331,0.0,0.0,39,0.00,,,0.00,,2013-04-05 11:02:00,
2013-04-05 05:13:00,49.0,25.0,29.93,NNW,331,0.0,0.0,39,0.00,,,0.00,,2013-04-05 11:13:00,
2013-04-05 05:22:00,49.0,26.0,29.93,NNW,331,0.0,0.0,40,0.00,,,0.00,,2013-04-05 11:22:00,
2013-04-05 05:33:00,48.0,24.0,29.93,NNW,331,0.0,0.0,39,0.00,,,0.00,,2013-04-05 11:33:00,
2013-04-05 05:42:00,48.0,24.0,29.93,NNW,331,0.0,0.0,39,0.00,,,0.00,,2013-04-05 11:42:00,
2013-04-05 05:52:00,48.0,26.0,29.93,NNW,331,0.0,0.0,42,0.00,,,0.00,,2013-04-05 11:52:00,
2013-04-05 06:02:00,48.0,28.0,29.93,NNW,331,0.0,0.0,46,0.00,,,0.00,,2013-04-05 12:02:00,
2013-04-05 06:12:00,48.0,28.0,29.93,NNW,331,0.0,0.0,46,0.00,,,0.00,,2013-04-05 12:12:00,
2013-04-05 06:22:00,48.0,27.0,29.93,NNW,331,0.0,0.0,43,0.00,,,0.00,,2013-04-05 12:22:00,
2013-04-05 06:32:00,48.0,28.0,29.93,NNW,333,0.0,0.0,46,0.00,,,0.00,,2013-04-05 12:32:00,
2013-04-05 06:42:00,48.0,28.0,29.93,NNW,333,0.0,0.0,46,0.00,,,0.00,,2013-04-05 12:42:00,
2013-04-05 06:52:00,48.0,27.0,29.93,NE,40,0.0,0.0,44,0.00,,,0.00,,2013-04-05 12:52:00,
2013-04-05 07:02:00,48.0,26.0,29.93,NE,40,0.0,0.0,42,0.00,,,0.00,,2013-04-05 13:02:00,
2013-04-05 07:12:00,48.0,26.0,29.93,NE,40,0.0,0.0,42,0.00,,,0.00,,2013-04-05 13:12:00,
2013-04-05 07:22:00,48.0,27.0,29.93,NE,40,0.0,0.0,43,0.00,,,0.00,,2013-04-05 13:22:00,
2013-04-05 07:32:00,48.0,26.0,29.93,NE,40,0.0,0.0,42,0.00,,,0.00,,2013-04-05 13:32:00,
2013-04-05 07:42:00,48.0,26.0,29.93,NE,40,0.0,0.0,42,0.00,,,0.00,,2013-04-05 13:42:00,
2013-04-05 07:52:00,48.0,25.0,29.93,NE,40,0.0,0.0,41,0.00,,,0.00,,2013-04-05 13:52:00,
2013-04-05 08:03:00,49.0,27.0,29.94,NE,40,0.0,0.0,43,0.00,,,0.00,,2013-04-05 14:03:00,
2013-04-05 08:12:00,49.0,27.0,29.94,NE,40,0.0,0.0,43,0.00,,,0.00,,2013-04-05 14:12:00,
2013-04-05 08:22:00,51.0,29.0,29.94,NE,40,0.0,0.0,42,0.00,,,0.00,,2013-04-05 14:22:00,
2013-04-05 08:36:00,52.0,28.0,29.94,NE,40,0.0,0.0,40,0.00,,,0.00,,2013-04-05 14:36:00,
2013-04-05 08:43:00,52.0,28.0,29.94,NE,40,0.0,0.0,40,0.00,,,0.00,,2013-04-05 14:43:00,
2013-04-05 08:52:00,54.0,29.0,29.94,NE,40,0.0,0.0,38,0.00,,,0.00,,2013-04-05 14:52:00,
2013-04-05 09:02:00,57.0,31.0,29.95,NE,40,0.0,0.0,37,0.00,,,0.00,,2013-04-05 15:02:00,
2013-04-05 09:12:00,57.0,31.0,29.95,NE,40,0.0,0.0,37,0.00,,,0.00,,2013-04-05 15:12:00,
2013-04-05 09:23:00,59.0,31.0,29.94,NE,40,0.0,0.0,34,0.00,,,0.00,,2013-04-05 15:23:00,
2013-04-05 09:33:00,60.0,32.0,29.94,NE,40,0.0,0.0,34,0.00,,,0.00,,2013-04-05 15:33:00,
2013-04-05 09:42:00,60.0,32.0,29.94,NE,40,0.0,0.0,34,0.00,,,0.00,,2013-04-05 15:42:00,
2013-04-05 09:53:00,63.0,29.0,29.94,NE,40,0.0,1.0,27,0.00,,,0.00,,2013-04-05 15:53:00,
2013-04-05 10:02:00,65.0,29.0,29.94,WSW,256,0.0,1.0,26,0.00,,,0.00,,2013-04-05 16:02:00,
2013-04-05 10:13:00,65.0,29.0,29.94,WSW,256,0.0,1.0,26,0.00,,,0.00,,2013-04-05 16:13:00,
2013-04-05 10:23:00,67.0,31.0,29.93,SSW,200,0.0,1.0,26,0.00,,,0.00,,2013-04-05 16:23:00,
2013-04-05 10:33:00,69.0,30.0,29.93,SSW,208,1.0,5.0,23,0.00,,,0.00,,2013-04-05 16:33:00,
2013-04-05 10:42:00,69.0,30.0,29.93,SSW,208,1.0,5.0,23,0.00,,,0.00,,2013-04-05 16:42:00,
2013-04-05 10:52:00,69.0,30.0,29.93,SSW,208,1.0,5.0,23,0.00,,,0.00,,2013-04-05 16:52:00,
2013-04-05 11:03:00,73.0,27.0,29.92,SSE,162,3.0,9.0,18,0.00,,,0.00,,2013-04-05 17:03:00,
2013-04-05 11:13:00,73.0,27.0,29.92,SSE,162,3.0,9.0,18,0.00,,,0.00,,2013-04-05 17:13:00,
2013-04-05 11:23:00,74.0,25.0,29.92,SW,214,3.0,8.0,16,0.00,,,0.00,,2013-04-05 17:23:00,
2013-04-05 11:32:00,74.0,25.0,29.91,ESE,117,2.0,6.0,16,0.00,,,0.00,,2013-04-05 17:32:00,
2013-04-05 11:45:00,74.0,25.0,29.91,ESE,117,2.0,6.0,16,0.00,,,0.00,,2013-04-05 17:45:00,
2013-04-05 11:52:00,75.0,26.0,29.90,ESE,106,3.0,9.0,16,0.00,,,0.00,,2013-04-05 17:52:00,
2013-04-05 12:02:00,74.0,26.0,29.89,South,183,3.0,8.0,17,0.00,,,0.00,,2013-04-05 18:02:00,
2013-04-05 12:12:00,74.0,26.0,29.89,South,183,3.0,8.0,17,0.00,,,0.00,,2013-04-05 18:12:00,
2013-04-05 12:22:00,77.0,29.0,29.88,SE,127,2.0,7.0,17,0.00,,,0.00,,2013-04-05 18:22:00,
2013-04-05 12:33:00,78.0,28.0,29.87,South,191,2.0,6.0,16,0.00,,,0.00,,2013-04-05 18:33:00,
2013-04-05 12:42:00,78.0,28.0,29.87,South,191,2.0,6.0,16,0.00,,,0.00,,2013-04-05 18:42:00,
2013-04-05 12:52:00,80.0,23.0,29.86,SSW,200,4.0,11.0,12,0.00,,,0.00,,2013-04-05 18:52:00,
2013-04-05 13:02:00,80.0,23.0,29.86,SSW,200,4.0,11.0,12,0.00,,,0.00,,2013-04-05 19:02:00,
2013-04-05 13:13:00,80.0,23.0,29.86,SSW,200,4.0,11.0,12,0.00,,,0.00,,2013-04-05 19:13:00,
2013-04-05 13:23:00,80.0,21.0,29.85,South,187,5.0,10.0,11,0.00,,,0.00,,2013-04-05 19:23:00,
2013-04-05 13:33:00,80.0,21.0,29.85,South,187,5.0,10.0,11,0.00,,,0.00,,2013-04-05 19:33:00,
2013-04-05 13:42:00,80.0,21.0,29.85,South,187,5.0,10.0,11,0.00,,,0.00,,2013-04-05 19:42:00,
2013-04-05 13:52:00,80.0,21.0,29.85,South,187,5.0,10.0,11,0.00,,,0.00,,2013-04-05 19:52:00,
2013-04-05 14:22:00,81.0,19.0,29.80,SW,219,3.0,9.0,10,0.00,,,0.00,,2013-04-05 20:22:00,
2013-04-05 14:33:00,81.0,19.0,29.80,SW,219,3.0,9.0,10,0.00,,,0.00,,2013-04-05 20:33:00,
2013-04-05 14:42:00,81.0,19.0,29.80,SW,219,3.0,9.0,10,0.00,,,0.00,,2013-04-05 20:42:00,
2013-04-05 14:52:00,84.0,13.0,29.78,SW,216,2.0,8.0,7,0.00,,,0.00,,2013-04-05 20:52:00,
2013-04-05 15:02:00,84.0,13.0,29.76,West,274,2.0,7.0,7,0.00,,,0.00,,2013-04-05 21:02:00,
2013-04-05 15:13:00,84.0,13.0,29.76,West,274,2.0,7.0,7,0.00,,,0.00,,2013-04-05 21:13:00,
2013-04-05 15:23:00,85.0,7.0,29.76,WNW,296,4.0,16.0,5,0.00,,,0.00,,2013-04-05 21:23:00,
2013-04-05 15:33:00,85.0,14.0,29.75,West,271,5.0,8.0,7,0.00,,,0.00,,2013-04-05 21:33:00,
2013-04-05 15:43:00,85.0,14.0,29.75,West,271,5.0,8.0,7,0.00,,,0.00,,2013-04-05 21:43:00,
2013-04-05 15:53:00,85.0,-4.0,29.75,WNW,288,4.0,9.0,3,0.00,,,0.00,,2013-04-05 21:53:00,
2013-04-05 16:03:00,85.0,7.0,29.74,SW,226,7.0,12.0,5,0.00,,,0.00,,2013-04-05 22:03:00,
2013-04-05 16:13:00,85.0,7.0,29.74,SW,226,7.0,12.0,5,0.00,,,0.00,,2013-04-05 22:13:00,
2013-04-05 16:23:00,85.0,-4.0,29.74,WSW,252,2.0,9.0,3,0.00,,,0.00,,2013-04-05 22:23:00,
2013-04-05 16:33:00,86.0,15.0,29.73,WSW,255,5.0,8.0,7,0.00,,,0.00,,2013-04-05 22:33:00,
2013-04-05 16:43:00,86.0,15.0,29.73,WSW,255,5.0,8.0,7,0.00,,,0.00,,2013-04-05 22:43:00,
2013-04-05 16:52:00,86.0,7.0,29.72,NW,307,3.0,9.0,5,0.00,,,0.00,,2013-04-05 22:52:00,
2013-04-05 17:02:00,84.0,1.0,29.72,WSW,238,1.0,8.0,4,0.00,,,0.00,,2013-04-05 23:02:00,
2013-04-05 17:12:00,84.0,1.0,29.72,WSW,238,1.0,8.0,4,0.00,,,0.00,,2013-04-05 23:12:00,
2013-04-05 17:22:00,85.0,2.0,29.71,WNW,288,3.0,10.0,4,0.00,,,0.00,,2013-04-05 23:22:00,
2013-04-05 17:32:00,84.0,10.0,29.71,WSW,248,5.0,8.0,6,0.00,,,0.00,,2013-04-05 23:32:00,
2013-04-05 17:42:00,84.0,10.0,29.71,WSW,248,5.0,8.0,6,0.00,,,0.00,,2013-04-05 23:42:00,
2013-04-05 17:53:00,83.0,9.0,29.70,SW,222,3.0,8.0,6,0.00,,,0.00,,2013-04-05 23:53:00,
2013-04-05 18:02:00,84.0,10.0,29.70,SW,221,4.0,8.0,6,0.00,,,0.00,,2013-04-06 00:02:00,
2013-04-05 18:13:00,84.0,10.0,29.70,SW,221,4.0,8.0,6,0.00,,,0.00,,2013-04-06 00:13:00,
2013-04-05 18:23:00,83.0,5.0,29.69,WSW,238,4.0,8.0,5,0.00,,,0.00,,2013-04-06 00:23:00,
2013-04-05 18:32:00,83.0,5.0,29.69,SW,229,4.0,9.0,5,0.00,,,0.00,,2013-04-06 00:32:00,
2013-04-05 18:42:00,83.0,5.0,29.69,SW,229,4.0,9.0,5,0.00,,,0.00,,2013-04-06 00:42:00,
2013-04-05 18:52:00,83.0,5.0,29.69,SW,226,5.0,8.0,5,0.00,,,0.00,,2013-04-06 00:52:00,
2013-04-05 19:02:00,82.0,4.0,29.69,West,274,4.0,9.0,5,0.00,,,0.00,,2013-04-06 01:02:00,
2013-04-05 19:13:00,82.0,4.0,29.69,West,274,4.0,9.0,5,0.00,,,0.00,,2013-04-06 01:13:00,
2013-04-05 19:22:00,81.0,4.0,29.69,WSW,246,3.0,12.0,5,0.00,,,0.00,,2013-04-06 01:22:00,
2013-04-05 19:32:00,80.0,3.0,29.69,WSW,248,3.0,7.0,5,0.00,,,0.00,,2013-04-06 01:32:00,
2013-04-05 19:43:00,80.0,3.0,29.69,WSW,248,3.0,7.0,5,0.00,,,0.00,,2013-04-06 01:43:00,
2013-04-05 19:53:00,78.0,6.0,29.69,WSW,252,0.0,3.0,6,0.00,,,0.00,,2013-04-06 01:53:00,
2013-04-05 20:02:00,77.0,8.0,29.69,SSW,204,0.0,3.0,7,0.00,,,0.00,,2013-04-06 02:02:00,
2013-04-05 20:12:00,77.0,8.0,29.69,SSW,204,0.0,3.0,7,0.00,,,0.00,,2013-04-06 02:12:00,
2013-04-05 20:22:00,75.0,7.0,29.70,SW,233,0.0,1.0,7,0.00,,,0.00,,2013-04-06 02:22:00,
2013-04-05 20:32:00,72.0,12.0,29.70,SW,233,0.0,0.0,10,0.00,,,0.00,,2013-04-06 02:32:00,
2013-04-05 20:42:00,72.0,12.0,29.70,SW,233,0.0,0.0,10,0.00,,,0.00,,2013-04-06 02:42:00,
2013-04-05 20:52:00,72.0,12.0,29.70,SW,233,0.0,0.0,10,0.00,,,0.00,,2013-04-06 02:52:00,
2013-04-05 21:02:00,67.0,18.0,29.71,WSW,239,0.0,1.0,15,0.00,,,0.00,,2013-04-06 03:02:00,
2013-04-05 21:12:00,67.0,18.0,29.71,WSW,239,0.0,1.0,15,0.00,,,0.00,,2013-04-06 03:12:00,
2013-04-05 21:22:00,66.0,15.0,29.72,SW,236,0.0,1.0,14,0.00,,,0.00,,2013-04-06 03:22:00,
2013-04-05 21:33:00,67.0,13.0,29.73,WNW,293,0.0,1.0,12,0.00,,,0.00,,2013-04-06 03:33:00,
2013-04-05 21:43:00,67.0,13.0,29.73,WNW,293,0.0,1.0,12,0.00,,,0.00,,2013-04-06 03:43:00,
2013-04-05 21:54:00,68.0,14.0,29.74,West,280,0.0,2.0,12,0.00,,,0.00,,2013-04-06 03:54:00,
2013-04-05 22:03:00,68.0,12.0,29.75,WNW,288,0.0,2.0,11,0.00,,,0.00,,2013-04-06 04:03:00,
2013-04-05 22:13:00,68.0,12.0,29.75,WNW,288,0.0,2.0,11,0.00,,,0.00,,2013-04-06 04:13:00,
2013-04-05 22:23:00,67.0,13.0,29.75,West,274,0.0,1.0,12,0.00,,,0.00,,2013-04-06 04:23:00,
2013-04-05 22:32:00,67.0,15.0,29.76,WSW,243,1.0,3.0,13,0.00,,,0.00,,2013-04-06 04:32:00,
2013-04-05 22:42:00,67.0,15.0,29.76,WSW,243,1.0,3.0,13,0.00,,,0.00,,2013-04-06 04:42:00,
2013-04-05 22:53:00,67.0,15.0,29.76,WSW,243,1.0,3.0,13,0.00,,,0.00,,2013-04-06 04:53:00,
2013-04-05 23:02:00,67.0,16.0,29.76,West,264,0.0,1.0,14,0.00,,,0.00,,2013-04-06 05:02:00,
2013-04-05 23:13:00,67.0,16.0,29.76,West,264,0.0,1.0,14,0.00,,,0.00,,2013-04-06 05:13:00,
2013-04-05 23:22:00,66.0,19.0,29.76,WSW,250,0.0,0.0,16,0.00,,,0.00,,2013-04-06 05:22:00,
2013-04-05 23:32:00,65.0,19.0,29.76,SW,231,0.0,1.0,17,0.00,,,0.00,,2013-04-06 05:32:00,
2013-04-05 23:42:00,65.0,19.0,29.76,SW,231,0.0,1.0,17,0.00,,,0.00,,2013-04-06 05:42:00,
2013-04-05 23:52:00,63.0,18.0,29.76,SW,228,0.0,1.0,17,0.00,,,0.00,,2013-04-06 05:52:00,